| time (UTC) | temp F | wind direction | speed knots | gust knots | rain 1hr in | rain 24hr in | rain mn in | humidity % | barometer mb |
| 20260506143542 | 54 | 128 | 0.9 | 4.3 | 0.00 | 0.00 | 0.00 | 70 | 1009.1 |
| 20260506142541 | 53 | 223 | 1.7 | 7.0 | 0.00 | 0.00 | 0.00 | 69 | 1009.1 |
| 20260506142041 | 53 | 155 | 0.9 | 7.0 | 0.00 | 0.00 | 0.00 | 69 | 1009.2 |
| 20260506141540 | 53 | 89 | 1.7 | 4.3 | 0.00 | 0.00 | 0.00 | 68 | 1009.2 |
| 20260506140534 | 54 | 13 | 0.9 | 5.2 | 0.00 | 0.00 | 0.00 | 68 | 1009.1 |
| 20260506140034 | 53 | 89 | 1.7 | 3.5 | 0.00 | 0.00 | 0.00 | 70 | 1009.1 |
| 20260506135534 | 53 | 124 | 1.7 | 4.3 | 0.00 | 0.00 | 0.00 | 70 | 1009.1 |
| 20260506135032 | 53 | 135 | 1.7 | 5.2 | 0.00 | 0.00 | 0.00 | 70 | 1009.1 |
| 20260506134533 | 53 | 115 | 1.7 | 6.1 | 0.00 | 0.00 | 0.00 | 70 | 1009.1 |
| 20260506134030 | 52 | 295 | 2.6 | 7.8 | 0.00 | 0.00 | 0.00 | 70 | 1009.1 |
| 20260506133532 | 52 | 168 | 2.6 | 7.8 | 0.00 | 0.00 | 0.00 | 70 | 1009.1 |
| 20260506133030 | 52 | 129 | 3.5 | 7.8 | 0.00 | 0.00 | 0.00 | 70 | 1009.2 |
| 20260506132025 | 52 | 46 | 1.7 | 6.1 | 0.00 | 0.00 | 0.00 | 70 | 1009.2 |
| 20260506131524 | 52 | 124 | 2.6 | 6.1 | 0.00 | 0.00 | 0.00 | 69 | 1009.2 |
| 20260506131021 | 52 | 105 | 2.6 | 7.0 | 0.00 | 0.00 | 0.00 | 70 | 1009.1 |
| 20260506130520 | 52 | 89 | 2.6 | 7.0 | 0.00 | 0.00 | 0.00 | 67 | 1009.2 |
| 20260506130020 | 52 | 89 | 2.6 | 7.8 | 0.00 | 0.00 | 0.00 | 67 | 1009.2 |
| 20260506125517 | 53 | 98 | 2.6 | 7.8 | 0.00 | 0.00 | 0.00 | 67 | 1009.2 |
| 20260506125016 | 53 | 135 | 2.6 | 6.1 | 0.00 | 0.00 | 0.00 | 65 | 1009.1 |
| 20260506124517 | 53 | 128 | 2.6 | 7.8 | 0.00 | 0.00 | 0.00 | 65 | 1009.2 |
| 20260506124010 | 53 | 131 | 2.6 | 7.8 | 0.00 | 0.00 | 0.00 | 63 | 1009.1 |
| 20260506123510 | 53 | 103 | 2.6 | 6.1 | 0.00 | 0.00 | 0.00 | 64 | 1009.1 |
| 20260506123010 | 53 | 117 | 1.7 | 5.2 | 0.00 | 0.00 | 0.00 | 63 | 1009.0 |
| 20260506122506 | 53 | 152 | 2.6 | 6.1 | 0.00 | 0.00 | 0.00 | 64 | 1009.1 |
| 20260506122008 | 53 | 59 | 2.6 | 6.1 | 0.00 | 0.00 | 0.00 | 64 | 1009.1 |
| 20260506121507 | 53 | 40 | 2.6 | 6.1 | 0.00 | 0.00 | 0.00 | 64 | 1009.1 |
| 20260506121004 | 54 | 60 | 2.6 | 6.1 | 0.00 | 0.00 | 0.00 | 64 | 1009.0 |
| 20260506120504 | 54 | 122 | 2.6 | 6.1 | 0.00 | 0.00 | 0.00 | 63 | 1009.0 |
| 20260506115505 | 54 | 89 | 2.6 | 7.8 | 0.00 | 0.00 | 0.00 | 62 | 1008.9 |
| 20260506115004 | 54 | 117 | 2.6 | 7.0 | 0.00 | 0.00 | 0.00 | 63 | 1008.8 |
| 20260506114505 | 54 | 126 | 2.6 | 7.0 | 0.00 | 0.00 | 0.00 | 63 | 1008.8 |
| 20260506114004 | 54 | 51 | 2.6 | 5.2 | 0.00 | 0.00 | 0.00 | 64 | 1008.8 |
| 20260506113006 | 54 | 98 | 2.6 | 8.7 | 0.00 | 0.00 | 0.00 | 61 | 1008.7 |
| 20260506112504 | 54 | 171 | 2.6 | 8.7 | 0.00 | 0.00 | 0.00 | 61 | 1008.8 |
| 20260506112001 | 54 | 28 | 2.6 | 7.0 | 0.00 | 0.00 | 0.00 | 60 | 1008.8 |
| 20260506111500 | 53 | 135 | 2.6 | 6.1 | 0.00 | 0.00 | 0.00 | 61 | 1008.8 |
| 20260506111000 | 53 | 114 | 1.7 | 5.2 | 0.00 | 0.00 | 0.00 | 62 | 1008.7 |
| 20260506110458 | 53 | 135 | 1.7 | 6.1 | 0.00 | 0.00 | 0.00 | 65 | 1008.7 |
| 20260506105958 | 53 | 35 | 1.7 | 6.1 | 0.00 | 0.00 | 0.00 | 64 | 1008.7 |
| 20260506105459 | 53 | 117 | 2.6 | 6.1 | 0.00 | 0.00 | 0.00 | 63 | 1008.8 |
| 20260506104957 | 53 | 117 | 2.6 | 6.1 | 0.00 | 0.00 | 0.00 | 65 | 1008.8 |
| 20260506104456 | 53 | 35 | 2.6 | 8.7 | 0.00 | 0.00 | 0.00 | 63 | 1008.7 |
| 20260506103959 | 53 | 46 | 2.6 | 8.7 | 0.00 | 0.00 | 0.00 | 63 | 1008.7 |
| 20260506103455 | 53 | 63 | 2.6 | 6.1 | 0.00 | 0.00 | 0.00 | 63 | 1008.7 |
| 20260506102954 | 53 | 95 | 2.6 | 5.2 | 0.00 | 0.00 | 0.00 | 64 | 1008.6 |
| 20260506101953 | 53 | 8 | 2.6 | 7.0 | 0.00 | 0.00 | 0.00 | 63 | 1008.5 |
| 20260506101453 | 53 | 68 | 3.5 | 7.0 | 0.00 | 0.00 | 0.00 | 63 | 1008.5 |
| 20260506100952 | 53 | 44 | 3.5 | 7.0 | 0.00 | 0.00 | 0.00 | 63 | 1008.5 |
| 20260506100446 | 52 | 60 | 2.6 | 6.1 | 0.00 | 0.00 | 0.00 | 63 | 1008.5 |
| 20260506095946 | 52 | 74 | 2.6 | 7.0 | 0.00 | 0.00 | 0.00 | 64 | 1008.5 |
| 20260506095446 | 52 | 117 | 2.6 | 7.0 | 0.00 | 0.00 | 0.00 | 65 | 1008.5 |
| 20260506094941 | 52 | 46 | 3.5 | 7.8 | 0.00 | 0.00 | 0.00 | 64 | 1008.5 |
| 20260506094439 | 52 | 76 | 2.6 | 7.8 | 0.00 | 0.00 | 0.00 | 63 | 1008.4 |
| 20260506093941 | 52 | 96 | 1.7 | 5.2 | 0.00 | 0.00 | 0.00 | 66 | 1008.4 |
| 20260506093434 | 52 | 1 | 1.7 | 4.3 | 0.00 | 0.00 | 0.00 | 67 | 1008.4 |
| 20260506092934 | 52 | 102 | 1.7 | 4.3 | 0.00 | 0.00 | 0.00 | 66 | 1008.3 |
| 20260506092432 | 52 | 81 | 1.7 | 4.3 | 0.00 | 0.00 | 0.00 | 67 | 1008.3 |
| 20260506091928 | 52 | 75 | 2.6 | 4.3 | 0.00 | 0.00 | 0.00 | 67 | 1008.4 |
| 20260506091428 | 52 | 51 | 2.6 | 4.3 | 0.00 | 0.00 | 0.00 | 67 | 1008.3 |
| 20260506090928 | 51 | 89 | 2.6 | 4.3 | 0.00 | 0.00 | 0.00 | 67 | 1008.3 |
| 20260506090426 | 51 | 108 | 2.6 | 8.7 | 0.00 | 0.00 | 0.00 | 67 | 1008.3 |
| 20260506085925 | 51 | 54 | 2.6 | 8.7 | 0.00 | 0.00 | 0.00 | 67 | 1008.2 |
| 20260506084923 | 51 | 135 | 2.6 | 7.0 | 0.00 | 0.00 | 0.00 | 67 | 1008.2 |
| 20260506084424 | 51 | 102 | 2.6 | 7.0 | 0.00 | 0.00 | 0.00 | 68 | 1008.1 |
| 20260506083931 | 51 | 20 | 2.6 | 7.0 | 0.00 | 0.00 | 0.00 | 69 | 1008.1 |
| 20260506083421 | 51 | 60 | 2.6 | 7.0 | 0.00 | 0.00 | 0.00 | 70 | 1008.6 |
| 20260506082921 | 51 | 46 | 2.6 | 8.7 | 0.00 | 0.00 | 0.00 | 71 | 1008.0 |
| 20260506082421 | 51 | 46 | 2.6 | 8.7 | 0.00 | 0.00 | 0.00 | 71 | 1007.9 |
| 20260506081916 | 51 | 117 | 2.6 | 7.8 | 0.00 | 0.00 | 0.00 | 73 | 1007.9 |
| 20260506081417 | 51 | 76 | 2.6 | 7.0 | 0.00 | 0.00 | 0.00 | 75 | 1007.9 |
| 20260506080916 | 50 | 21 | 2.6 | 7.0 | 0.00 | 0.00 | 0.00 | 76 | 1007.8 |
| 20260506080425 | 50 | 210 | 2.6 | 7.0 | 0.00 | 0.00 | 0.00 | 75 | 1007.9 |
| 20260506073413 | 50 | 115 | 1.7 | 7.0 | 0.00 | 0.00 | 0.00 | 79 | 1007.8 |
| 20260506072915 | 50 | 53 | 2.6 | 7.0 | 0.00 | 0.00 | 0.00 | 79 | 1007.9 |
| 20260506072414 | 50 | 63 | 2.6 | 7.0 | 0.00 | 0.00 | 0.00 | 81 | 1007.8 |
| 20260506071907 | 50 | 351 | 2.6 | 7.0 | 0.00 | 0.00 | 0.00 | 81 | 1007.8 |
| 20260506071421 | 50 | 102 | 2.6 | 6.1 | 0.00 | 0.00 | 0.00 | 82 | 1007.7 |
| 20260506070905 | 50 | 157 | 1.7 | 6.1 | 0.00 | 0.00 | 0.00 | 82 | 1007.7 |
| 20260506070406 | 50 | 336 | 2.6 | 8.7 | 0.00 | 0.00 | 0.00 | 83 | 1007.7 |
| 20260506062359 | 49 | 20 | 1.7 | 4.3 | 0.00 | 0.00 | 0.00 | 83 | 1007.7 |
| 20260506061900 | 49 | 46 | 2.6 | 9.6 | 0.00 | 0.00 | 0.00 | 82 | 1007.7 |
| 20260506060359 | 49 | 11 | 2.6 | 6.1 | 0.00 | 0.00 | 0.00 | 81 | 1007.6 |
| 20260506051359 | 49 | 25 | 1.7 | 4.3 | 0.00 | 0.00 | 0.00 | 78 | 1007.6 |
| 20260506050859 | 49 | 46 | 1.7 | 3.5 | 0.00 | 0.00 | 0.00 | 78 | 1007.6 |
| 20260506050401 | 49 | 295 | 0.9 | 3.5 | 0.00 | 0.00 | 0.00 | 80 | 1007.5 |
| 20260506044352 | 49 | 63 | 0.9 | 3.5 | 0.00 | 0.00 | 0.00 | 82 | 1007.5 |
| 20260506043847 | 49 | 108 | 1.7 | 4.3 | 0.00 | 0.00 | 0.00 | 82 | 1007.4 |
| 20260506043348 | 49 | 89 | 1.7 | 5.2 | 0.00 | 0.00 | 0.00 | 83 | 1007.4 |
| 20260506042848 | 49 | 1 | 1.7 | 5.2 | 0.00 | 0.00 | 0.00 | 83 | 1007.4 |
| 20260506042347 | 49 | 108 | 1.7 | 4.3 | 0.00 | 0.00 | 0.00 | 83 | 1007.4 |
| 20260506041846 | 49 | 352 | 1.7 | 5.2 | 0.00 | 0.00 | 0.00 | 84 | 1007.4 |
| 20260506041342 | 49 | 9 | 1.7 | 5.2 | 0.00 | 0.00 | 0.00 | 84 | 1007.3 |
| 20260506040843 | 49 | 345 | 1.7 | 5.2 | 0.00 | 0.00 | 0.00 | 84 | 1007.4 |
| 20260506040341 | 49 | 11 | 1.7 | 5.2 | 0.00 | 0.00 | 0.00 | 84 | 1007.4 |
| 20260506035835 | 49 | 44 | 1.7 | 5.2 | 0.00 | 0.00 | 0.00 | 84 | 1007.3 |
| 20260506035335 | 49 | 344 | 2.6 | 7.0 | 0.00 | 0.00 | 0.00 | 84 | 1007.3 |
| 20260506034836 | 49 | 13 | 2.6 | 7.0 | 0.00 | 0.00 | 0.00 | 84 | 1007.3 |
| 20260506034333 | 49 | 58 | 2.6 | 7.0 | 0.00 | 0.00 | 0.00 | 84 | 1007.4 |
| 20260506033831 | 49 | 331 | 2.6 | 7.0 | 0.00 | 0.00 | 0.00 | 84 | 1007.5 |
| 20260506032330 | 49 | 1 | 3.5 | 7.0 | 0.00 | 0.00 | 0.00 | 85 | 1007.6 |
| 20260506031827 | 49 | 1 | 3.5 | 7.0 | 0.00 | 0.00 | 0.00 | 85 | 1007.6 |
| 20260506031322 | 49 | 335 | 2.6 | 7.8 | 0.00 | 0.00 | 0.00 | 85 | 1007.6 |
| 20260506030823 | 49 | 44 | 3.5 | 7.8 | 0.00 | 0.00 | 0.00 | 85 | 1007.6 |
| 20260506030324 | 49 | 15 | 2.6 | 7.0 | 0.00 | 0.00 | 0.00 | 86 | 1007.6 |
| 20260506025321 | 49 | 89 | 3.5 | 7.8 | 0.00 | 0.00 | 0.00 | 86 | 1007.8 |
| 20260506024820 | 49 | 8 | 2.6 | 7.8 | 0.00 | 0.00 | 0.00 | 86 | 1007.8 |
| 20260506024316 | 49 | 15 | 3.5 | 7.8 | 0.00 | 0.00 | 0.00 | 86 | 1007.8 |
| 20260506023815 | 49 | 314 | 3.5 | 7.8 | 0.00 | 0.00 | 0.00 | 86 | 1007.8 |
| 20260506023314 | 49 | 354 | 3.5 | 8.7 | 0.00 | 0.00 | 0.00 | 86 | 1007.8 |
| 20260506022811 | 50 | 354 | 3.5 | 8.7 | 0.00 | 0.00 | 0.00 | 86 | 1007.8 |
| 20260506021812 | 50 | 8 | 3.5 | 7.8 | 0.00 | 0.00 | 0.00 | 86 | 1007.8 |
| 20260506021306 | 50 | 32 | 3.5 | 7.8 | 0.00 | 0.00 | 0.00 | 87 | 1008.0 |
| 20260506020808 | 50 | 28 | 3.5 | 7.8 | 0.00 | 0.00 | 0.00 | 87 | 1007.9 |
| 20260506020308 | 50 | 20 | 2.6 | 7.0 | 0.00 | 0.00 | 0.00 | 87 | 1007.9 |
| 20260506015803 | 50 | 354 | 2.6 | 7.0 | 0.00 | 0.00 | 0.00 | 87 | 1008.0 |
| 20260506015305 | 50 | 89 | 3.5 | 8.7 | 0.00 | 0.00 | 0.00 | 87 | 1008.1 |
| 20260506014804 | 50 | 98 | 3.5 | 8.7 | 0.00 | 0.00 | 0.00 | 86 | 1008.1 |
| 20260506014301 | 50 | 46 | 2.6 | 9.6 | 0.00 | 0.00 | 0.00 | 86 | 1008.2 |
| 20260506013801 | 50 | 30 | 2.6 | 9.6 | 0.00 | 0.00 | 0.00 | 86 | 1008.2 |
| 20260506012256 | 50 | 46 | 2.6 | 7.0 | 0.00 | 0.00 | 0.00 | 86 | 1008.2 |
| 20260506011757 | 50 | 6 | 3.5 | 8.7 | 0.00 | 0.00 | 0.00 | 86 | 1008.2 |
| 20260506010805 | 50 | 18 | 3.5 | 7.8 | 0.00 | 0.00 | 0.00 | 85 | 1008.3 |
| 20260506010254 | 50 | 46 | 3.5 | 9.6 | 0.00 | 0.00 | 0.00 | 85 | 1008.3 |
| 20260506005751 | 49 | 39 | 3.5 | 9.6 | 0.00 | 0.00 | 0.00 | 84 | 1008.3 |
| 20260506005250 | 49 | 350 | 3.5 | 8.7 | 0.00 | 0.00 | 0.00 | 84 | 1008.3 |
| 20260506004750 | 49 | 25 | 3.5 | 9.6 | 0.00 | 0.00 | 0.00 | 84 | 1008.4 |
| 20260506004249 | 49 | 32 | 2.6 | 9.6 | 0.00 | 0.00 | 0.00 | 84 | 1008.4 |
| 20260506003750 | 49 | 59 | 2.6 | 7.8 | 0.00 | 0.00 | 0.00 | 83 | 1008.4 |
| 20260506001747 | 49 | 347 | 2.6 | 7.0 | 0.00 | 0.00 | 0.00 | 83 | 1008.6 |
| 20260506000745 | 49 | 8 | 3.5 | 7.0 | 0.00 | 0.00 | 0.00 | 82 | 1008.6 |
| 20260506000247 | 49 | 49 | 2.6 | 7.0 | 0.00 | 0.00 | 0.00 | 82 | 1008.7 |
| 20260505235745 | 49 | 334 | 2.6 | 7.0 | 0.00 | 0.00 | 0.00 | 82 | 1008.8 |
| 20260505235242 | 49 | 1 | 2.6 | 7.0 | 0.00 | 0.00 | 0.00 | 82 | 1008.9 |
| 20260505234750 | 49 | 346 | 2.6 | 7.0 | 0.00 | 0.00 | 0.00 | 82 | 1009.0 |
| 20260505234242 | 49 | 20 | 2.6 | 6.1 | 0.00 | 0.00 | 0.00 | 83 | 1009.0 |
| 20260505233740 | 49 | 350 | 2.6 | 6.1 | 0.00 | 0.00 | 0.00 | 83 | 1009.1 |
| 20260505233242 | 49 | 37 | 2.6 | 7.0 | 0.00 | 0.00 | 0.00 | 83 | 1009.1 |
| 20260505232739 | 49 | 28 | 2.6 | 7.0 | 0.00 | 0.00 | 0.00 | 83 | 1009.1 |
| 20260505231739 | 49 | 1 | 3.5 | 7.8 | 0.00 | 0.00 | 0.00 | 83 | 1009.0 |
| 20260505231234 | 49 | 27 | 3.5 | 7.8 | 0.00 | 0.00 | 0.00 | 83 | 1009.1 |
| 20260505230735 | 49 | 346 | 3.5 | 7.8 | 0.00 | 0.00 | 0.00 | 83 | 1009.1 |
| 20260505230234 | 49 | 342 | 2.6 | 7.8 | 0.00 | 0.00 | 0.00 | 82 | 1009.1 |
| 20260505225745 | 49 | 63 | 2.6 | 7.0 | 0.00 | 0.00 | 0.00 | 82 | 1009.1 |
| 20260505225232 | 49 | 40 | 3.5 | 7.8 | 0.00 | 0.00 | 0.00 | 82 | 1009.1 |
| 20260505224734 | 49 | 44 | 3.5 | 7.8 | 0.00 | 0.00 | 0.00 | 82 | 1009.1 |
| 20260505224229 | 49 | 354 | 3.5 | 8.7 | 0.00 | 0.00 | 0.00 | 82 | 1009.2 |
| 20260505223230 | 49 | 21 | 3.5 | 8.7 | 0.00 | 0.00 | 0.00 | 81 | 1009.3 |
| 20260505222722 | 49 | 28 | 3.5 | 8.7 | 0.00 | 0.00 | 0.00 | 81 | 1009.3 |
| 20260505222222 | 49 | 30 | 3.5 | 8.7 | 0.00 | 0.00 | 0.00 | 81 | 1009.4 |
| 20260505221722 | 49 | 18 | 3.5 | 7.8 | 0.00 | 0.00 | 0.00 | 81 | 1009.3 |
| 20260505221223 | 49 | 8 | 3.5 | 7.8 | 0.00 | 0.00 | 0.00 | 81 | 1009.4 |
| 20260505220724 | 49 | 37 | 3.5 | 7.8 | 0.00 | 0.00 | 0.00 | 81 | 1009.4 |
| 20260505220220 | 49 | 30 | 3.5 | 9.6 | 0.00 | 0.00 | 0.00 | 80 | 1009.5 |
| 20260505215222 | 49 | 351 | 2.6 | 6.1 | 0.00 | 0.00 | 0.00 | 81 | 1009.6 |
| 20260505214215 | 49 | 18 | 3.5 | 7.8 | 0.00 | 0.00 | 0.00 | 81 | 1009.6 |
| 20260505213715 | 49 | 15 | 3.5 | 9.6 | 0.00 | 0.00 | 0.00 | 81 | 1009.6 |
| 20260505213215 | 49 | 15 | 3.5 | 9.6 | 0.00 | 0.00 | 0.00 | 81 | 1009.7 |
| 20260505212212 | 49 | 28 | 2.6 | 7.0 | 0.00 | 0.00 | 0.00 | 81 | 1009.8 |
| 20260505211713 | 49 | 1 | 2.6 | 7.0 | 0.00 | 0.00 | 0.00 | 81 | 1009.8 |
| 20260505211210 | 50 | 100 | 2.6 | 7.0 | 0.00 | 0.00 | 0.00 | 81 | 1009.8 |
| 20260505210711 | 50 | 84 | 2.6 | 8.7 | 0.00 | 0.00 | 0.00 | 81 | 1009.8 |
| 20260505210211 | 50 | 20 | 3.5 | 8.7 | 0.00 | 0.00 | 0.00 | 81 | 1009.7 |
| 20260505205709 | 50 | 9 | 2.6 | 6.1 | 0.00 | 0.00 | 0.00 | 81 | 1009.9 |
| 20260505205210 | 50 | 25 | 2.6 | 12.2 | 0.00 | 0.00 | 0.00 | 81 | 1009.9 |
| 20260505204708 | 50 | 18 | 2.6 | 12.2 | 0.00 | 0.00 | 0.00 | 81 | 1010.0 |
| 20260505204208 | 50 | 18 | 3.5 | 12.2 | 0.00 | 0.00 | 0.00 | 81 | 1009.9 |
| 20260505203706 | 50 | 322 | 3.5 | 12.2 | 0.00 | 0.00 | 0.00 | 81 | 1009.9 |
| 20260505203206 | 50 | 25 | 3.5 | 8.7 | 0.00 | 0.00 | 0.00 | 81 | 1010.0 |
| 20260505202702 | 50 | 52 | 3.5 | 11.3 | 0.00 | 0.00 | 0.00 | 81 | 1010.0 |
| 20260505202201 | 50 | 83 | 3.5 | 11.3 | 0.00 | 0.00 | 0.00 | 81 | 1010.1 |
| 20260505201702 | 50 | 51 | 3.5 | 10.4 | 0.00 | 0.00 | 0.00 | 81 | 1010.0 |
| 20260505201159 | 50 | 25 | 3.5 | 10.4 | 0.00 | 0.00 | 0.00 | 81 | 1009.9 |
| 20260505200700 | 50 | 343 | 4.3 | 10.4 | 0.00 | 0.00 | 0.00 | 81 | 1010.0 |
| 20260505200200 | 50 | 352 | 4.3 | 9.6 | 0.00 | 0.00 | 0.00 | 81 | 1009.9 |
| 20260505195156 | 50 | 18 | 3.5 | 9.6 | 0.00 | 0.00 | 0.00 | 82 | 1009.9 |
| 20260505194656 | 50 | 6 | 3.5 | 10.4 | 0.00 | 0.00 | 0.00 | 82 | 1009.9 |
| 20260505194155 | 50 | 11 | 4.3 | 10.4 | 0.00 | 0.00 | 0.00 | 82 | 1009.8 |
| 20260505193654 | 50 | 341 | 4.3 | 11.3 | 0.00 | 0.00 | 0.00 | 82 | 1009.8 |
| 20260505193155 | 50 | 348 | 4.3 | 11.3 | 0.00 | 0.00 | 0.00 | 82 | 1009.8 |
| 20260505192652 | 50 | 1 | 4.3 | 10.4 | 0.00 | 0.00 | 0.00 | 82 | 1009.8 |
| 20260505192152 | 50 | 353 | 4.3 | 10.4 | 0.00 | 0.00 | 0.00 | 82 | 1009.8 |
| 20260505190647 | 50 | 356 | 4.3 | 9.6 | 0.00 | 0.00 | 0.00 | 82 | 1009.6 |
| 20260505190147 | 50 | 353 | 4.3 | 12.2 | 0.00 | 0.00 | 0.00 | 82 | 1009.5 |
| 20260505185145 | 50 | 322 | 3.5 | 8.7 | 0.00 | 0.00 | 0.00 | 82 | 1009.4 |
| 20260505184644 | 51 | 32 | 3.5 | 11.3 | 0.00 | 0.00 | 0.00 | 81 | 1009.5 |
| 20260505184143 | 51 | 44 | 4.3 | 11.3 | 0.00 | 0.00 | 0.00 | 81 | 1009.4 |
| 20260505183143 | 51 | 21 | 5.2 | 11.3 | 0.00 | 0.00 | 0.00 | 81 | 1009.3 |
| 20260505181641 | 51 | 4 | 4.3 | 10.4 | 0.00 | 0.00 | 0.00 | 81 | 1009.3 |
| 20260505181136 | 51 | 46 | 4.3 | 10.4 | 0.00 | 0.00 | 0.00 | 81 | 1009.3 |
| 20260505180635 | 51 | 356 | 4.3 | 10.4 | 0.00 | 0.00 | 0.00 | 81 | 1009.3 |
| 20260505180135 | 51 | 13 | 3.5 | 11.3 | 0.00 | 0.00 | 0.00 | 81 | 1009.3 |
| 20260505175634 | 52 | 20 | 2.6 | 11.3 | 0.00 | 0.00 | 0.00 | 81 | 1009.2 |
| 20260505175135 | 52 | 110 | 2.6 | 12.2 | 0.00 | 0.00 | 0.00 | 81 | 1009.3 |
| 20260505174633 | 52 | 346 | 4.3 | 12.2 | 0.00 | 0.00 | 0.00 | 81 | 1009.3 |
| 20260505174136 | 52 | 15 | 4.3 | 12.2 | 0.00 | 0.00 | 0.00 | 81 | 1009.2 |
| 20260505173632 | 52 | 23 | 4.3 | 12.2 | 0.00 | 0.00 | 0.00 | 80 | 1009.3 |
| 20260505173137 | 52 | 1 | 4.3 | 12.2 | 0.00 | 0.00 | 0.00 | 80 | 1009.3 |
| 20260505172634 | 52 | 353 | 4.3 | 12.2 | 0.00 | 0.00 | 0.00 | 80 | 1009.3 |
| 20260505172131 | 53 | 39 | 5.2 | 13.0 | 0.00 | 0.00 | 0.00 | 79 | 1009.4 |
| 20260505171631 | 53 | 135 | 4.3 | 13.0 | 0.00 | 0.00 | 0.00 | 79 | 1009.4 |
| 20260505171130 | 53 | 347 | 3.5 | 9.6 | 0.00 | 0.00 | 0.00 | 79 | 1009.3 |
| 20260505165626 | 53 | 1 | 4.3 | 10.4 | 0.00 | 0.00 | 0.00 | 78 | 1009.4 |
| 20260505164627 | 53 | 32 | 4.3 | 13.0 | 0.00 | 0.00 | 0.00 | 77 | 1009.4 |
| 20260505164126 | 54 | 39 | 4.3 | 13.0 | 0.00 | 0.00 | 0.00 | 77 | 1009.5 |
| 20260505163627 | 54 | 75 | 4.3 | 12.2 | 0.00 | 0.00 | 0.00 | 77 | 1009.4 |
| 20260505163121 | 54 | 352 | 5.2 | 12.2 | 0.00 | 0.00 | 0.00 | 76 | 1009.4 |
| 20260505162622 | 54 | 18 | 5.2 | 13.0 | 0.00 | 0.00 | 0.00 | 75 | 1009.5 |
| 20260505162116 | 54 | 30 | 5.2 | 13.0 | 0.00 | 0.00 | 0.00 | 75 | 1009.4 |
| 20260505161617 | 54 | 16 | 4.3 | 10.4 | 0.00 | 0.00 | 0.00 | 75 | 1009.4 |
| 20260505161116 | 54 | 329 | 4.3 | 10.4 | 0.00 | 0.00 | 0.00 | 74 | 1009.4 |
| 20260505160618 | 54 | 18 | 3.5 | 8.7 | 0.00 | 0.00 | 0.00 | 73 | 1009.4 |
| 20260505160115 | 55 | 74 | 3.5 | 8.7 | 0.00 | 0.00 | 0.00 | 73 | 1009.4 |
| 20260505152621 | 54 | 344 | 4.3 | 10.4 | 0.00 | 0.00 | 0.00 | 74 | 1009.6 |
| 20260505151610 | 54 | 37 | 4.3 | 11.3 | 0.00 | 0.00 | 0.00 | 75 | 1009.6 |
| 20260505150701 | 54 | 25 | 3.5 | 9.6 | 0.00 | 0.00 | 0.00 | 75 | 1009.8 |
| 20260505150202 | 55 | 349 | 4.3 | 10.4 | 0.00 | 0.00 | 0.00 | 75 | 1009.7 |